Preview of NWS' New Version of Forecast
This preview is not operational and should not be used for support decisions.

Regional Weather Roundup (RWR)

Issued by National Weather Service (NWS)

                            
000
ASUS43 KTOP 240259
RWRKS 

WEATHER ROUNDUP FOR KANSAS
NATIONAL WEATHER SERVICE GOODLAND KS
1000 PM CDT SUN JUN 23 2019

NOTE:  "FAIR" INDICATES FEW OR NO CLOUDS BELOW 12,000 FEET WITH NO
SIGNIFICANT WEATHER AND/OR OBSTRUCTIONS TO VISIBILITY.

KSZ001>006-013>018-027>032-041>047-240400-
NORTHWEST KANSAS
  
CITY           SKY/WX    TMP DP  RH WIND       PRES   REMARKS
GOODLAND       CLEAR     53  49  86 N8        29.97R                  
HAYS           CLEAR     62  55  77 N15       29.88R                  
HILL CITY      MOCLDY    61  54  77 N9        29.91R                  
RUSSELL        CLEAR     64  58  80 N16G24    29.85R                  
$$

KSZ061>065-074>080-084>089-240400-
SOUTHWEST KANSAS
  
CITY           SKY/WX    TMP DP  RH WIND       PRES   REMARKS
DODGE CITY     CLEAR     62  54  74 NW8       29.92R                  
GARDEN CITY    CLEAR     56  49  77 N6        29.95R                  
GREAT BEND     CLEAR     64  58  80 NW6       29.85S                  
LIBERAL        CLEAR     63  57  81 N9        29.95R                  
$$

KSZ066>073-081>083-090>101-240400-
SOUTHEAST KANSAS
  
CITY           SKY/WX    TMP DP  RH WIND       PRES   REMARKS
CHANUTE        CLEAR     69  66  90 CALM      29.78R                  
COFFEYVILLE    CLOUDY    70  67  90 SE5       29.78R                  
HUTCHINSON     CLEAR     67  57  70 N6        29.81R                  
MEDICINE LODGE   N/A     69  59  70 N8        29.82R                  
NEWTON         CLEAR     71  64  78 N9        29.81R                  
PARSONS        CLEAR     68  68 100 CALM      29.79R                  
WICHITA INTL   PTCLDY    75  61  61 NW5       29.79R                  
WICHITA JABRA  PTCLDY    72  64  76 NW5       29.78S                  
WICHITA MCCONL CLEAR     74  63  66 NW6       29.79R                  
WINFIELD       PTCLDY    71  67  87 SE3       29.79S                  
$$

KSZ007>012-019>026-033>040-048>060-102>105-240400-
NORTHEAST KANSAS
  
CITY           SKY/WX    TMP DP  RH WIND       PRES   REMARKS
CONCORDIA      PTCLDY    63  57  81 NW10      29.82S                  
EMPORIA        PTCLDY    72  65  78 CALM      29.76F                  
LAWRENCE       MOCLDY    71  67  87 CALM      29.74R                  
MANHATTAN      CLEAR     69  63  81 CALM      29.78R                  
OLATHE IND     PTCLDY    68  65  90 S6        29.77R                  
OLATHE EXE     CLEAR     67  66  97 S7        29.76S                  
SALINA         CLEAR     68  62  81 N8        29.81R                  
TOPEKA BILLARD CLEAR     74  64  71 CALM      29.74S                  
TOPEKA FORBES  CLEAR     71  64  78 CALM      29.75S                  
$$